User: anonymous   Login
Location: York
(31.8935°S, 116.7682°E)
Time: 15:49:57
(UTC+08:00)
Language:

Transit 2A Rocket - Orbit

View from above orbital plane
View from above orbital plane
View from above satellite
View from above satellite

Ground track
Ground track

The orbit data is extracted from the following two-line orbital elements,

1 00047U 60007C   22267.90062872  .00000279  00000-0  87754-4 0  9990
2 00047  66.6647  96.8056 0220420  55.3230 306.8429 14.42423503254281
Epoch (UTC): 24 September 2022 21:36:54
Eccentricity: 0.0220420
inclination: 66.6647°
perigee height: 593 km
apogee height: 907 km
right ascension of ascending node: 96.8056°
argument of perigee: 55.3230°
revolutions per day: 14.42423503
mean anomaly at epoch: 306.8429°
orbit number at epoch: 25428

The dashed part of the orbit path shows where the satellite is in the earth's shadow,  

DLR